| time (UTC) | temp F | wind direction | speed MPH | gust MPH | rain 1hr in | rain 24hr in | rain mn in | humidity % | barometer mb |
| 20260903130056 | 54 | 268 | 2.0 | 6.0 | 0.00 | 0.00 | 0.00 | 51 | 1010.5 |
| 20260903124559 | 54 | 299 | 1.0 | 4.0 | 0.00 | 0.00 | 0.00 | 58 | 1010.3 |
| 20260903123047 | 53 | 133 | 1.0 | 2.0 | 0.00 | 0.00 | 0.00 | 57 | 1010.1 |
| 20260903121553 | 52 | 134 | 1.0 | 3.0 | 0.00 | 0.00 | 0.00 | 63 | 1009.9 |
| 20260903120054 | 51 | 315 | 0.0 | 5.0 | 0.00 | 0.00 | 0.00 | 66 | 1009.7 |
| 20260903114552 | 52 | 0 | 0.0 | 9.0 | 0.00 | 0.00 | 0.00 | 66 | 1009.5 |
| 20260903113056 | 54 | 161 | 4.0 | 6.0 | 0.00 | 0.00 | 0.00 | 55 | 1009.5 |
| 20260903111545 | 52 | 96 | 1.0 | 6.0 | 0.00 | 0.00 | 0.00 | 60 | 1009.6 |
| 20260903110053 | 50 | 316 | 0.0 | 1.0 | 0.00 | 0.00 | 0.00 | 72 | 1009.6 |
| 20260903104545 | 50 | 0 | 0.0 | 5.0 | 0.00 | 0.00 | 0.00 | 75 | 1009.5 |
| 20260903103043 | 51 | 0 | 2.0 | 4.0 | 0.00 | 0.00 | 0.00 | 73 | 1009.7 |
| 20260903101554 | 51 | 0 | 0.0 | 1.0 | 0.00 | 0.00 | 0.00 | 61 | 1009.6 |
| 20260903100046 | 51 | 134 | 2.0 | 3.0 | 0.00 | 0.00 | 0.00 | 63 | 1009.8 |
| 20260903094555 | 50 | 86 | 0.0 | 3.0 | 0.00 | 0.00 | 0.00 | 70 | 1009.7 |
| 20260903093055 | 50 | 15 | 0.0 | 3.0 | 0.00 | 0.00 | 0.00 | 76 | 1009.7 |
| 20260903091606 | 49 | 317 | 0.0 | 0.0 | 0.00 | 0.00 | 0.00 | 69 | 1009.6 |
| 20260903090046 | 49 | 0 | 0.0 | 3.0 | 0.00 | 0.00 | 0.00 | 70 | 1009.5 |
| 20260903084554 | 53 | 126 | 0.0 | 2.0 | 0.00 | 0.00 | 0.00 | 53 | 1009.4 |
| 20260903083048 | 53 | 153 | 1.0 | 4.0 | 0.00 | 0.00 | 0.00 | 54 | 1009.4 |
| 20260903081549 | 52 | 241 | 1.0 | 3.0 | 0.00 | 0.00 | 0.00 | 60 | 1009.5 |
| 20260903080049 | 53 | 162 | 1.0 | 4.0 | 0.00 | 0.00 | 0.00 | 60 | 1009.4 |
| 20260903074555 | 54 | 285 | 0.0 | 3.0 | 0.00 | 0.00 | 0.00 | 55 | 1009.7 |
| 20260903073047 | 54 | 167 | 1.0 | 3.0 | 0.00 | 0.00 | 0.00 | 57 | 1009.6 |
| 20260903071547 | 54 | 58 | 0.0 | 1.0 | 0.00 | 0.00 | 0.00 | 68 | 1009.5 |
| 20260903070043 | 55 | 293 | 1.0 | 2.0 | 0.00 | 0.00 | 0.00 | 50 | 1009.3 |
| 20260903064549 | 56 | 158 | 0.0 | 3.0 | 0.00 | 0.00 | 0.00 | 46 | 1009.2 |
| 20260903063104 | 56 | 73 | 0.0 | 2.0 | 0.00 | 0.00 | 0.00 | 49 | 1009.3 |
| 20260903061545 | 56 | 111 | 2.0 | 3.0 | 0.00 | 0.00 | 0.00 | 46 | 1009.1 |
| 20260903060056 | 56 | 0 | 0.0 | 2.0 | 0.00 | 0.00 | 0.00 | 52 | 1009.1 |
| 20260903054549 | 58 | 103 | 1.0 | 3.0 | 0.00 | 0.00 | 0.00 | 45 | 1009.3 |
| 20260903053109 | 59 | 0 | 0.0 | 2.0 | 0.00 | 0.00 | 0.00 | 48 | 1009.2 |
| 20260903051547 | 63 | 183 | 0.0 | 3.0 | 0.00 | 0.00 | 0.00 | 30 | 1009.2 |
| 20260903050100 | 62 | 0 | 0.0 | 3.0 | 0.00 | 0.00 | 0.00 | 32 | 1009.4 |
| 20260903044557 | 62 | 78 | 0.0 | 1.0 | 0.00 | 0.00 | 0.00 | 35 | 1009.3 |
| 20260903043049 | 63 | 0 | 0.0 | 1.0 | 0.00 | 0.00 | 0.00 | 30 | 1009.2 |
| 20260903041554 | 64 | 263 | 1.0 | 5.0 | 0.00 | 0.00 | 0.00 | 30 | 1009.3 |
| 20260903040049 | 66 | 276 | 3.0 | 6.0 | 0.00 | 0.00 | 0.00 | 29 | 1009.1 |
| 20260903034543 | 67 | 233 | 4.0 | 7.0 | 0.00 | 0.00 | 0.00 | 26 | 1009.0 |
| 20260903033042 | 67 | 248 | 5.0 | 9.0 | 0.00 | 0.00 | 0.00 | 25 | 1008.8 |
| 20260903031541 | 68 | 245 | 6.0 | 10.0 | 0.00 | 0.00 | 0.00 | 25 | 1008.8 |
| 20260903030049 | 68 | 257 | 5.0 | 11.0 | 0.00 | 0.00 | 0.00 | 25 | 1008.7 |
| 20260903024545 | 70 | 252 | 6.0 | 11.0 | 0.00 | 0.00 | 0.00 | 24 | 1008.7 |
| 20260903023044 | 70 | 276 | 4.0 | 7.0 | 0.00 | 0.00 | 0.00 | 21 | 1008.7 |
| 20260903021550 | 70 | 259 | 2.0 | 5.0 | 0.00 | 0.00 | 0.00 | 23 | 1008.6 |
| 20260903020048 | 71 | 291 | 4.0 | 6.0 | 0.00 | 0.00 | 0.00 | 27 | 1008.4 |
| 20260903014550 | 75 | 254 | 4.0 | 11.0 | 0.00 | 0.00 | 0.00 | 20 | 1008.0 |
| 20260903013052 | 78 | 204 | 12.0 | 24.0 | 0.00 | 0.00 | 0.00 | 16 | 1007.9 |
| 20260903011548 | 78 | 254 | 6.0 | 15.0 | 0.00 | 0.00 | 0.00 | 19 | 1007.6 |
| 20260903010045 | 78 | 278 | 6.0 | 17.0 | 0.00 | 0.00 | 0.00 | 19 | 1007.6 |
| 20260903004543 | 79 | 252 | 7.0 | 18.0 | 0.00 | 0.00 | 0.00 | 18 | 1007.5 |
| 20260903003051 | 79 | 273 | 7.0 | 21.0 | 0.00 | 0.00 | 0.00 | 18 | 1007.5 |
| 20260903001551 | 81 | 320 | 8.0 | 22.0 | 0.00 | 0.00 | 0.00 | 19 | 1007.3 |
| 20260903000046 | 80 | 250 | 12.0 | 21.0 | 0.00 | 0.00 | 0.00 | 16 | 1007.2 |
| 20260902234543 | 79 | 267 | 11.0 | 21.0 | 0.00 | 0.00 | 0.00 | 18 | 1007.2 |
| 20260902233044 | 79 | 266 | 9.0 | 22.0 | 0.00 | 0.00 | 0.00 | 20 | 1006.9 |
| 20260902231551 | 79 | 259 | 10.0 | 24.0 | 0.00 | 0.00 | 0.00 | 19 | 1006.7 |
| 20260902230046 | 80 | 235 | 8.0 | 22.0 | 0.00 | 0.00 | 0.00 | 19 | 1006.6 |
| 20260902224545 | 81 | 293 | 12.0 | 24.0 | 0.00 | 0.00 | 0.00 | 19 | 1006.6 |
| 20260902223050 | 81 | 279 | 12.0 | 23.0 | 0.00 | 0.00 | 0.00 | 21 | 1006.5 |
| 20260902221546 | 81 | 319 | 13.0 | 25.0 | 0.00 | 0.00 | 0.00 | 23 | 1006.5 |
| 20260902220049 | 80 | 244 | 3.0 | 8.0 | 0.00 | 0.00 | 0.00 | 23 | 1006.7 |
| 20260902214542 | 79 | 316 | 5.0 | 10.0 | 0.00 | 0.00 | 0.00 | 29 | 1006.9 |
| 20260902213046 | 77 | 311 | 3.0 | 6.0 | 0.00 | 0.00 | 0.00 | 36 | 1007.2 |
| 20260902211553 | 78 | 311 | 6.0 | 9.0 | 0.00 | 0.00 | 0.00 | 34 | 1007.2 |
| 20260902210113 | 81 | 341 | 8.0 | 11.0 | 0.00 | 0.00 | 0.00 | 30 | 1007.2 |
| 20260902204554 | 82 | 158 | 5.0 | 8.0 | 0.00 | 0.00 | 0.00 | 27 | 1007.2 |
| 20260902203045 | 82 | 80 | 0.0 | 5.0 | 0.00 | 0.00 | 0.00 | 28 | 1007.5 |
| 20260902201609 | 81 | 167 | 2.0 | 11.0 | 0.00 | 0.00 | 0.00 | 30 | 1008.0 |
| 20260902200046 | 80 | 247 | 6.0 | 11.0 | 0.00 | 0.00 | 0.00 | 29 | 1008.3 |
| 20260902194544 | 78 | 293 | 5.0 | 17.0 | 0.00 | 0.00 | 0.00 | 37 | 1008.5 |
| 20260902193054 | 77 | 312 | 2.0 | 6.0 | 0.00 | 0.00 | 0.00 | 46 | 1008.5 |
| 20260902191600 | 76 | 0 | 0.0 | 4.0 | 0.00 | 0.00 | 0.00 | 46 | 1008.6 |
| 20260902190049 | 76 | 39 | 2.0 | 7.0 | 0.00 | 0.00 | 0.00 | 45 | 1008.5 |
| 20260902184624 | 77 | 19 | 0.0 | 2.0 | 0.00 | 0.00 | 0.00 | 41 | 1008.8 |
| 20260902183054 | 76 | 4 | 0.0 | 2.0 | 0.00 | 0.00 | 0.00 | 43 | 1009.2 |
| 20260902181603 | 73 | 305 | 1.0 | 5.0 | 0.00 | 0.00 | 0.00 | 48 | 1009.4 |
| 20260902180110 | 72 | 276 | 1.0 | 2.0 | 0.00 | 0.00 | 0.00 | 52 | 1009.6 |
| 20260902174600 | 71 | 0 | 0.0 | 1.0 | 0.00 | 0.00 | 0.00 | 59 | 1009.8 |
| 20260902173044 | 72 | 0 | 0.0 | 4.0 | 0.00 | 0.00 | 0.00 | 56 | 1009.9 |
| 20260902171555 | 71 | 117 | 1.0 | 5.0 | 0.00 | 0.00 | 0.00 | 49 | 1010.1 |
| 20260902170051 | 71 | 158 | 3.0 | 6.0 | 0.00 | 0.00 | 0.00 | 49 | 1010.0 |
| 20260902164548 | 71 | 129 | 3.0 | 7.0 | 0.00 | 0.00 | 0.00 | 50 | 1009.9 |
| 20260902163043 | 71 | 131 | 4.0 | 8.0 | 0.00 | 0.00 | 0.00 | 53 | 1009.9 |
| 20260902161555 | 70 | 114 | 4.0 | 7.0 | 0.00 | 0.00 | 0.00 | 52 | 1010.0 |
| 20260902160051 | 70 | 101 | 3.0 | 6.0 | 0.00 | 0.00 | 0.00 | 54 | 1010.0 |
| 20260902154543 | 69 | 79 | 0.0 | 2.0 | 0.00 | 0.00 | 0.00 | 55 | 1010.0 |
| 20260902153052 | 67 | 75 | 2.0 | 5.0 | 0.00 | 0.00 | 0.00 | 59 | 1010.2 |
| 20260902151550 | 64 | 139 | 1.0 | 3.0 | 0.00 | 0.00 | 0.00 | 63 | 1010.4 |
| 20260902150044 | 60 | 235 | 1.0 | 3.0 | 0.00 | 0.00 | 0.00 | 70 | 1010.6 |
| 20260902144556 | 60 | 279 | 0.0 | 1.0 | 0.00 | 0.00 | 0.00 | 69 | 1010.8 |
| 20260902143053 | 60 | 291 | 1.0 | 2.0 | 0.00 | 0.00 | 0.00 | 70 | 1010.7 |
| 20260902141542 | 61 | 0 | 0.0 | 3.0 | 0.00 | 0.00 | 0.00 | 69 | 1010.8 |
| 20260902140055 | 61 | 239 | 3.0 | 8.0 | 0.00 | 0.00 | 0.00 | 63 | 1011.1 |
| 20260902134555 | 60 | 264 | 2.0 | 4.0 | 0.00 | 0.00 | 0.00 | 67 | 1011.1 |
| 20260902133045 | 61 | 232 | 1.0 | 7.0 | 0.00 | 0.00 | 0.00 | 66 | 1011.0 |
| 20260902131542 | 59 | 251 | 2.0 | 7.0 | 0.00 | 0.00 | 0.00 | 67 | 1010.7 |